Regional Weather Roundup
Issued by NWS

Home | Current Version | Previous Version | Graphics & Text | Print | Product List | Glossary Off
Versions: 1 2 3 4 5 6 7 8 9 10 11 12 13 14 15 16 17 18 19 20 21 22 23 24 25 26 27 28 29 30 31 32 33 34 35 36 37 38 39 40 41 42 43 44 45 46 47 48 49 50

000
ASUS43 KDMX 231806
RWRIA

WEATHER ROUNDUP FOR IOWA
NATIONAL WEATHER SERVICE DES MOINES IA
100 PM CDT WED AUG 23 2017

NOTE: "FAIR" INDICATES FEW OR NO CLOUDS BELOW 12,000 FEET WITH NO
SIGNIFICANT WEATHER AND/OR OBSTRUCTIONS TO VISIBILITY.

* - THESE STATIONS ARE NOT NWS STATIONS...THUS NOT UNDER NWS
QUALITY CONTROL.  THEY ALSO DO NOT REPORT WEATHER SUCH
AS PRECIPITATION OR FOG.

IAZ001>003-012>014-020>022-031>034-043>046-231900-
   NORTHWEST IOWA

CITY           SKY/WX    TMP DP  RH WIND       PRES   REMARKS
CARROLL *      SUNNY     75  55  50 VRB5G12   30.14F
CHEROKEE *     SUNNY     75  53  46 SW6       30.13F
DENISON *      SUNNY     73  55  53 VRB6      30.16F
LE MARS *      SUNNY    N/A N/A N/A CALM      30.12F
ORANGE CITY *  SUNNY     75  55  50 SW6       30.13F
SHELDON *      SUNNY     75  54  46 W6        30.11F
SIOUX CITY     SUNNY     76  59  55 S7        30.13F
6HR MIN TEMP:  52; 6HR MAX TEMP:  76;

SPENCER        PTSUNNY   75  51  43 NW8       30.13F
6HR MIN TEMP:  48; 6HR MAX TEMP:  75;

STORM LAKE *   SUNNY     73  54  49 W7        30.14F
$$

IAZ055>058-069>071-079>083-090>094-231900-
   SOUTHWEST IOWA

CITY           SKY/WX    TMP DP  RH WIND       PRES   REMARKS
ATLANTIC *     SUNNY     73  52  46 CALM      30.15F
AUDUBON *      SUNNY     75  50  41 CALM      30.16F
CLARINDA *     SUNNY     75  55  50 E3        30.17F
COUNCIL BLFS * SUNNY     75  52  43 VRB3      30.15F
CRESTON *      SUNNY     75  48  38 CALM      30.17F
HARLAN  *      SUNNY     75  54  46 VRB5      30.18F
LAMONI         SUNNY     75  52  44 S5        30.15F
6HR MIN TEMP:  54; 6HR MAX TEMP:  77;

RED OAK *      SUNNY     75  54  46 S6        30.15F
SHENANDOAH *   SUNNY     73  55  53 VRB3      30.16F
$$

IAZ047>049-059>061-072>074-084-231900-
   CENTRAL IOWA

CITY           SKY/WX    TMP DP  RH WIND       PRES   REMARKS
AMES           MOSUNNY   75  55  49 VRB6      30.13F
6HR MIN TEMP:  50; 6HR MAX TEMP:  75;

ANKENY *       SUNNY     75  48  38 CALM      30.15F
BOONE *        SUNNY     73  52  46 NW9G16    30.13F
CHARITON *     SUNNY     75  52  43 VRB7      30.14F
DES MOINES     MOSUNNY   78  49  35 W8        30.13F
6HR MIN TEMP:  55; 6HR MAX TEMP:  78;

GRINNELL*      SUNNY     73  53  50 NW7       30.15F
KNOXVILLE *    SUNNY     75  48  38 NW7G13    30.13F
MARSHALLTOWN   SUNNY     75  51  43 NW7G17    30.12F
6HR MIN TEMP:  48; 6HR MAX TEMP:  75;

NEWTON *       SUNNY     73  52  46 VRB7      30.14F
PELLA *        SUNNY     76  46  33 N3        30.15F
PERRY *          N/A     75  49  39 W5        30.15F
$$

IAZ004>006-015-016-023>025-035-036-231900-
   NORTH CENTRAL IOWA

CITY           SKY/WX    TMP DP  RH WIND       PRES   REMARKS
ALGONA *       SUNNY     73  50  43 W5        30.14F
CLARION *      SUNNY     73  52  46 W9        30.14F
ESTHERVILLE    MOSUNNY   72  49  44 VRB5      30.13F
6HR MIN TEMP:  49; 6HR MAX TEMP:  73;

FORT DODGE *     N/A    N/A N/A N/A MISG        N/A
MASON CITY     SUNNY     74  50  42 NW14      30.14F
6HR MIN TEMP:  50; 6HR MAX TEMP:  74;

FOREST CITY *    N/A     73  50  43 NW7       30.13F
WEBSTER CITY * SUNNY     75  52  43 VRB7      30.12F
IOWA FALLS *     N/A     74  51  43 W10G16    30.15S
$$

IAZ007>011-017>019-026>030-037>042-050>054-066-231900-
   NORTHEAST IOWA

CITY           SKY/WX    TMP DP  RH WIND       PRES   REMARKS
CEDAR RAPIDS   SUNNY     75  49  39 NW13      30.11F
6HR MIN TEMP:  48; 6HR MAX TEMP:  75;

CHARLES CITY * SUNNY     73  50  43 W10       30.12F
CLINTON *      MOSUNNY   73  54  51 NW12      30.09F
DECORAH *      MOSUNNY   72  52  49 NW15      30.09F
DUBUQUE        SUNNY     73  50  44 N13       30.09F
6HR MIN TEMP:  50; 6HR MAX TEMP:  73;

MONTICELLO *   SUNNY     75  50  41 N13G20    30.09F
OELWEIN *      SUNNY     73  52  46 NW13G20   30.12F
WATERLOO       SUNNY     75  49  39 NW12G18   30.10F
6HR MIN TEMP:  50; 6HR MAX TEMP:  75;

$$

IAZ064-065-067-068-078-231900-
   EAST CENTRAL IOWA

CITY           SKY/WX    TMP DP  RH WIND       PRES   REMARKS
DAVENPORT      SUNNY     75  49  39 NW10G18   30.11F
6HR MIN TEMP:  52; 6HR MAX TEMP:  75;

IOWA CITY      MOSUNNY   77  51  40 W10G18    30.12F
6HR MIN TEMP:  54; 6HR MAX TEMP:  78;

MT. PLEASANT * SUNNY     75  46  36 NW7       30.13S
MUSCATINE *    SUNNY     77  48  36 W10G16    30.11F
QUAD CITIES    SUNNY     78  47  33 NW14      30.09S
6HR MIN TEMP:  53; 6HR MAX TEMP:  79;

$$

IAZ062-063-075>077-085>089-095>099-231900-
   SOUTHEAST IOWA

CITY           SKY/WX    TMP DP  RH WIND       PRES   REMARKS
BURLINGTON     SUNNY     76  51  41 VRB5      30.11F
6HR MIN TEMP:  55; 6HR MAX TEMP:  76;

FAIRFIELD *    SUNNY     75  48  38 NW13      30.13F
FORT MADISON * SUNNY     75  54  46 N8        30.13F
KEOKUK *       SUNNY     75  48  38 N7        30.12F
OSKALOOSA *      N/A     75  48  38 CALM      30.14F
CENTERVILLE *    N/A     75  52  43 N10       30.15F
OTTUMWA        SUNNY     78  48  34 NW13      30.13F
6HR MIN TEMP:  53; 6HR MAX TEMP:  78;

WASHINGTON *   SUNNY     73  52  46 NW12      30.13F
$$

ABBREVIATIONS USED IN REMARKS
   TC - TEMPERATURES IN CELSIUS
  WCI - WIND CHILL INDEX
   HX - HEAT INDEX
  VSB - VISIBILITY
$$





USA.gov is the U.S. government's official web portal to all federal, state and local government web resources and services.